Total_Precipitation_Accumulation
0.01 0.00 0.01 0.02 0.05 0.06 0.05 0.06 0.09 0.11 0.11 0.10 0.10 0.10 0.11 0.10 0.08 0.07 0.06 0.08 0.12 0.17 0.20 0.20 0.15 0.11 0.09 0.06 0.03 0.02 0.02 0.03 0.05 0.08 0.11 0.13 0.13 0.13 0.13 0.14 0.18 0.19 0.09
0.01 0.00 0.01 0.01 0.03 0.05 0.05 0.07 0.09 0.10 0.11 0.12 0.13 0.14 0.14 0.10 0.07 0.07 0.07 0.09 0.14 0.18 0.18 0.17 0.13 0.09 0.07 0.04 0.02 0.01 0.02 0.04 0.08 0.12 0.14 0.16 0.20 0.17 0.17 0.17 0.21 0.27 0.17
0.01 0.00 0.01 0.01 0.01 0.04 0.05 0.07 0.08 0.08 0.09 0.11 0.11 0.12 0.10 0.08 0.07 0.06 0.06 0.09 0.12 0.13 0.12 0.08 0.04 0.03 0.03 0.01 0.01 0.01 0.02 0.05 0.10 0.17 0.34 0.29 0.24 0.16 0.18 0.18 0.15 0.13 0.16
0.01 0.00 0.00 0.01 0.02 0.03 0.03 0.05 0.09 0.09 0.09 0.09 0.09 0.09 0.08 0.07 0.07 0.06 0.07 0.09 0.10 0.09 0.05 0.03 0.01 0.01 0.01 0.00 0.01 0.01 0.03 0.06 0.12 0.29 0.54 0.43 0.31 0.21 0.21 0.20 0.16 0.13 0.15
0.01 0.00 0.01 0.01 0.02 0.04 0.04 0.03 0.07 0.10 0.10 0.09 0.09 0.09 0.10 0.09 0.08 0.07 0.08 0.09 0.09 0.08 0.08 0.07 0.04 0.01 0.01 0.01 0.01 0.02 0.05 0.09 0.17 0.40 0.74 0.70 0.50 0.37 0.27 0.25 0.27 0.21 0.19
0.00 0.00 0.01 0.02 0.03 0.06 0.06 0.04 0.06 0.08 0.10 0.11 0.12 0.12 0.11 0.11 0.09 0.07 0.08 0.08 0.08 0.09 0.11 0.13 0.08 0.02 0.01 0.01 0.02 0.04 0.07 0.11 0.24 0.49 0.90 0.97 0.60 0.36 0.29 0.29 0.30 0.26 0.21
0.01 0.00 0.01 0.03 0.04 0.06 0.07 0.08 0.08 0.07 0.09 0.13 0.14 0.11 0.10 0.10 0.09 0.09 0.08 0.07 0.09 0.12 0.14 0.11 0.05 0.02 0.01 0.01 0.03 0.06 0.09 0.15 0.29 0.69 0.99 0.87 0.67 0.37 0.30 0.30 0.30 0.26 0.19
0.01 0.00 0.01 0.03 0.04 0.06 0.09 0.10 0.13 0.12 0.12 0.14 0.14 0.11 0.10 0.08 0.08 0.10 0.09 0.09 0.11 0.16 0.15 0.06 0.01 0.00 0.00 0.01 0.02 0.05 0.10 0.12 0.23 0.64 0.95 0.67 0.48 0.29 0.23 0.24 0.24 0.22 0.18
0.00 0.00 0.00 0.01 0.02 0.06 0.10 0.11 0.13 0.15 0.14 0.13 0.12 0.12 0.12 0.12 0.13 0.13 0.12 0.11 0.14 0.15 0.10 0.03 0.01 0.00 0.01 0.01 0.02 0.03 0.06 0.09 0.22 0.39 0.46 0.37 0.32 0.18 0.12 0.11 0.09 0.09 0.08
0.01 0.01 0.00 0.01 0.03 0.03 0.02 0.06 0.09 0.12 0.15 0.11 0.09 0.10 0.12 0.11 0.10 0.10 0.09 0.09 0.10 0.10 0.07 0.03 0.02 0.01 0.01 0.01 0.01 0.02 0.04 0.07 0.15 0.29 0.39 0.26 0.15 0.10 0.07 0.06 0.04 0.03 0.02
0.02 0.01 0.01 0.01 0.04 0.04 0.02 0.02 0.04 0.07 0.09 0.06 0.04 0.06 0.06 0.16 0.20 0.17 0.10 0.09 0.08 0.07 0.06 0.04 0.03 0.01 0.01 0.00 0.01 0.01 0.02 0.05 0.16 0.32 0.41 0.28 0.12 0.07 0.04 0.03 0.03 0.02 0.01
0.02 0.01 0.01 0.01 0.02 0.06 0.03 0.01 0.02 0.02 0.02 0.03 0.09 0.06 0.12 0.27 0.33 0.24 0.19 0.11 0.08 0.07 0.06 0.05 0.03 0.02 0.01 0.00 0.01 0.01 0.01 0.04 0.17 0.32 0.28 0.17 0.11 0.06 0.04 0.03 0.02 0.01 0.00
0.03 0.01 0.01 0.01 0.03 0.14 0.04 0.03 0.04 0.05 0.09 0.11 0.18 0.17 0.22 0.27 0.24 0.27 0.31 0.18 0.12 0.10 0.09 0.08 0.04 0.03 0.02 0.02 0.02 0.02 0.02 0.05 0.09 0.17 0.17 0.13 0.10 0.07 0.04 0.02 0.01 0.01 0.01
0.04 0.01 0.01 0.01 0.01 0.02 0.03 0.04 0.05 0.05 0.08 0.12 0.18 0.14 0.24 0.30 0.31 0.32 0.35 0.28 0.25 0.22 0.19 0.12 0.08 0.07 0.05 0.04 0.03 0.03 0.04 0.04 0.06 0.08 0.12 0.14 0.13 0.12 0.07 0.05 0.03 0.03 0.03
0.07 0.03 0.01 0.00 0.01 0.02 0.06 0.06 0.04 0.05 0.05 0.09 0.14 0.14 0.17 0.23 0.28 0.33 0.31 0.29 0.27 0.28 0.24 0.14 0.12 0.13 0.08 0.08 0.05 0.06 0.07 0.06 0.06 0.08 0.12 0.16 0.16 0.16 0.14 0.09 0.06 0.05 0.06
0.10 0.05 0.02 0.01 0.01 0.02 0.04 0.04 0.04 0.03 0.07 0.10 0.13 0.15 0.16 0.24 0.35 0.37 0.35 0.36 0.35 0.35 0.38 0.28 0.24 0.24 0.13 0.10 0.10 0.10 0.11 0.10 0.10 0.11 0.14 0.17 0.18 0.19 0.20 0.18 0.13 0.11 0.11
0.12 0.07 0.05 0.02 0.02 0.02 0.04 0.04 0.04 0.04 0.06 0.10 0.16 0.22 0.17 0.21 0.36 0.39 0.44 0.46 0.45 0.42 0.43 0.39 0.37 0.36 0.32 0.26 0.22 0.18 0.16 0.16 0.18 0.19 0.22 0.24 0.22 0.22 0.22 0.21 0.18 0.15 0.13
0.13 0.09 0.07 0.04 0.03 0.04 0.04 0.05 0.07 0.10 0.13 0.15 0.16 0.23 0.23 0.26 0.32 0.40 0.46 0.53 0.53 0.51 0.55 0.55 0.54 0.47 0.42 0.38 0.36 0.32 0.28 0.25 0.25 0.28 0.34 0.37 0.35 0.31 0.28 0.24 0.20 0.17 0.15
0.14 0.12 0.09 0.07 0.08 0.08 0.08 0.10 0.12 0.12 0.15 0.23 0.27 0.31 0.39 0.48 0.48 0.55 0.60 0.68 0.68 0.73 0.74 0.72 0.71 0.61 0.58 0.57 0.50 0.42 0.33 0.33 0.33 0.31 0.35 0.36 0.32 0.30 0.29 0.25 0.19 0.16 0.15
0.21 0.21 0.17 0.16 0.19 0.18 0.20 0.21 0.27 0.31 0.36 0.43 0.51 0.57 0.62 0.72 0.84 0.94 0.97 0.98 0.95 0.95 0.89 0.87 0.84 0.76 0.67 0.63 0.49 0.41 0.37 0.37 0.37 0.35 0.31 0.27 0.24 0.20 0.20 0.19 0.15 0.14 0.17
0.51 0.46 0.37 0.28 0.30 0.37 0.46 0.59 0.73 0.89 0.95 0.95 1.03 1.15 1.31 1.43 1.50 1.51 1.49 1.42 1.31 1.20 1.11 1.00 0.87 0.78 0.71 0.64 0.58 0.48 0.37 0.31 0.29 0.27 0.24 0.24 0.23 0.20 0.18 0.17 0.14 0.12 0.13
0.80 0.73 0.61 0.55 0.63 0.81 1.04 1.25 1.45 1.60 1.72 1.77 1.81 1.94 2.05 2.14 2.20 2.21 2.14 2.05 1.92 1.65 1.29 1.04 0.90 0.85 0.76 0.69 0.66 0.61 0.45 0.29 0.21 0.17 0.17 0.17 0.18 0.18 0.18 0.17 0.15 0.13 0.12
1.01 0.97 0.88 0.86 1.09 1.44 1.73 2.00 2.23 2.47 2.62 2.63 2.55 2.58 2.63 2.64 2.64 2.64 2.55 2.32 1.96 1.55 1.22 1.05 0.99 0.90 0.80 0.70 0.62 0.61 0.54 0.44 0.28 0.17 0.13 0.11 0.11 0.11 0.12 0.13 0.13 0.13 0.12
1.16 1.18 1.13 1.12 1.34 1.67 2.01 2.45 2.80 3.02 3.20 3.39 3.34 3.19 3.00 2.80 2.70 2.56 2.33 1.93 1.57 1.30 1.12 1.05 0.96 0.83 0.74 0.62 0.52 0.45 0.39 0.35 0.30 0.20 0.13 0.09 0.07 0.06 0.06 0.07 0.07 0.07 0.06
1.24 1.18 1.17 1.28 1.60 2.16 2.69 3.07 3.28 3.48 3.61 3.60 3.42 3.17 2.89 2.59 2.22 1.91 1.64 1.36 1.19 1.02 0.86 0.75 0.66 0.56 0.47 0.39 0.33 0.29 0.24 0.20 0.18 0.16 0.13 0.09 0.08 0.08 0.07 0.07 0.06 0.06 0.05
1.02 1.13 1.27 1.45 1.94 2.54 3.00 3.33 3.53 3.59 3.46 3.27 2.99 2.64 2.39 2.12 1.75 1.42 1.19 1.00 0.86 0.71 0.55 0.41 0.33 0.26 0.23 0.22 0.21 0.18 0.16 0.15 0.15 0.15 0.15 0.11 0.09 0.09 0.08 0.09 0.09 0.09 0.08